Weather in Agios Gavriil

Greece     36°53′25″N   27°17′21″E
temp.,
°C
wind,
m/s
gust,
m/s
humid.,
%
clouds,
%
prec.,
mm/h
press.,
hPa
HPBL,
m
16 may, sun
sun1600:00+18s2274100 0.0 101061
03:00+18sw127755 0.0 1009107
06:00+17wsw34790 0.0 1008256
09:00+19sw347798 0.0 1009578
12:00+20w447284 0.0 1009510
15:00+20wnw55710 0.0 1009582
18:00+20wnw66727 0.0 1009564
21:00+19wnw5879100 0.0 1010417
17 may, mon
mon1700:00+18wnw587610 0.0 1010424
03:00+18nw457618 0.0 1010355
06:00+18nnw33758 0.0 1010227
09:00+20nnw33603 0.0 1012273
12:00+20wnw54585 0.0 1012392
15:00+21w665889 0.0 1012348
18:00+21wsw456413 0.0 1011218
21:00+19sw22795 0.0 101235
18 may, tue
tue1800:00+18sse228427 0.0 101280
03:00+18s22840 0.0 1011122
06:00+18sse23860 0.0 1011134
09:00+20sse45800 0.0 1012318
12:00+22sse45747 0.0 1012255
15:00+23sse44705 0.0 1012203
18:00+22sse34726 0.0 1012187
21:00+19se33864 0.0 101378
19 may, wed
wed1900:00+19se23870 0.0 101348
03:00+19ese22863 0.0 101232
06:00+18e22820 0.0 101230
09:00+21sse01680 0.0 101399
12:00+23wsw22590 0.0 1013319
15:00+24w32580 0.0 1012337
18:00+23wnw22630 0.0 1011163
21:00+20w12740 0.0 101215
20 may, thu
thu2000:00+19se11780 0.0 101213
03:00+19ese12770 0.0 101112
06:00+19sse22770 0.0 101022
09:00+21sse44660 0.0 1010174
12:00+22sse34662 0.0 1011230
15:00+23sse44580 0.0 1011214
18:00+23s45590 0.0 1010196
21:00+20sse44720 0.0 101053